Location: Prairie Dale
(45.6972°N, 104.5033°W)
Time: 09:24:29
(UTC+00:00)

STARS - Pass Details

Date: 04 July 2022
Orbit: 620 x 637 km, 98.2° (Epoch: 14 August)

Event Time Altitude Azimuth Distance (km) Brightness Sun altitude
Rises 07:23:12 0° 354° (N) 2,932 ? -21.3°
Reaches altitude 10° 07:26:56 10° 321° (NW) 2,013 ? -21.2°
Maximum altitude 07:28:17 11° 302° (WNW) 1,921 ? -21.2°
Drops below altitude 10° 07:29:39 10° 284° (WNW) 2,005 ? -21.2°
Enters shadow 07:31:29 - 264° (W) 2,360 ? -21.1°
